This demonstration page uses our WeatherBlox Daily Observations layout. Learn more.

Left ArrowRight Arrow

39.08367, -84.50855

Hourly Observations for May 7, 2017

Temp ( °F °C ) Dew Point ( °F °C ) Humidity (%) Winds ( mph kmh ) Pressure ( in mb ) Visibility ( mi km ) Precip ( " mm )
12:53 am 00:53 Clear 47 8.3 32 undefined 56 56 W 7 11 29.83 1010 10 16.0934 N/A
1:53 am 01:53 Clear 46 7.8 29 -1.7 51 51 WNW 7 11 29.85 1011 10 16.0934 N/A
2:53 am 02:53 Clear 45 7.2 30 -1.1 56 56 WNW 9 15 29.85 1011 10 16.0934 N/A
3:53 am 03:53 Clear 44 6.7 30 -1.1 58 58 W 7 11 29.85 1011 10 16.0934 N/A
4:53 am 04:53 Clear 44 6.7 27 -2.8 51 51 WNW 7 11 29.88 1012 10 16.0934 N/A
5:53 am 05:53 Clear 42 5.6 27 -2.8 55 55 WNW 8 13 29.9 1012 10 16.0934 N/A
6:53 am 06:53 Sunny 41 5 28 -2.2 60 60 WNW 8 13 29.92 1013 10 16.0934 N/A
7:53 am 07:53 Sunny 43 6.1 30 -1.1 60 60 W 8 13 29.96 1014 10 16.0934 N/A
8:53 am 08:53 Sunny 47 8.3 31 -0.6 54 54 W 8 13 29.97 1015 10 16.0934 N/A
9:53 am 09:53 Sunny 50 10 33 0.6 52 52 W 8 13 29.98 1015 10 16.0934 N/A
10:53 am 10:53 Sunny 54 12.2 33 0.6 45 45 VRB 6 9 29.99 1016 10 16.0934 N/A
11:53 am 11:53 Sunny 57 13.9 30 -1.1 36 36 W 9 15 29.98 1015 10 16.0934 N/A
12:53 pm 12:53 Sunny 60 15.6 33 0.6 36 36 NW 13 20 29.98 1015 10 16.0934 N/A
1:53 pm 13:53 Sunny 60 15.6 33 0.6 36 36 NW 17 28 29.97 1015 10 16.0934 N/A
2:53 pm 14:53 Sunny 62 16.7 34 1.1 35 35 NW 18 30 29.96 1015 10 16.0934 N/A
3:53 pm 15:53 Sunny 63 17.2 34 1.1 34 34 NW 15 24 29.96 1014 10 16.0934 N/A
4:53 pm 16:53 Sunny 63 17.2 34 1.1 34 34 W 16 26 29.95 1014 10 16.0934 N/A
5:53 pm 17:53 Mostly Sunny 63 17.2 35 1.7 35 35 W 15 24 29.95 1014 10 16.0934 N/A
6:53 pm 18:53 Mostly Sunny 62 16.7 33 0.6 34 34 WNW 12 19 29.95 1014 10 16.0934 N/A
7:53 pm 19:53 Mostly Sunny 59 15 36 2.2 42 42 VRB 6 9 29.96 1015 10 16.0934 N/A
8:53 pm 20:53 Clear 56 13.3 32 undefined 40 40 NW 10 17 29.99 1016 10 16.0934 N/A
9:53 pm 21:53 Clear 53 11.7 26 -3.3 35 35 N 12 19 30.01 1016 10 16.0934 N/A
10:53 pm 22:53 Clear 50 10 25 -3.9 38 38 WNW 3 6 30.02 1017 10 16.0934 N/A
11:53 pm 23:53 Clear 43 6.1 33 0.6 68 68 N N/A 30.03 1017 10 16.0934 N/A

Powered by AerisWeather